Regional Weather Roundup
Issued by NWS Lake Charles, LA

Home | Current Version | Previous Version | Text Only | Print | Product List | Glossary On
Versions: 1 2 3 4 5 6 7 8 9 10 11 12 13 14 15 16 17 18 19 20 21 22 23 24 25 26 27 28 29 30 31 32 33 34 35 36 37 38 39 40 41 42 43 44 45 46 47 48 49 50
186
ASUS44 KLCH 230110
RWRLCH
REGIONAL WEATHER ROUNDUP
NATIONAL WEATHER SERVICE LAKE CHARLES LA
700 PM CST SUN JAN 22 2017

Note: "fair" indicates few or no clouds below 12,000 feet with no
significant weather and/or obstructions to visibility.


ACROSS SOUTHEAST TEXAS

CITY           SKY/WX    TMP DP  RH WIND       PRES   REMARKS
BEAUMONT       MOCLDY    62  45  53 NW16G28   29.72R
BEAUMONT CITY  FAIR      61  45  56 NW20G26   29.74R
ORANGE         CLOUDY    62  46  55 NW16G30   29.72R
JASPER         CLOUDY    62  48  58 NW17G26   29.73R
$$

ACROSS CENTRAL LOUISIANA

CITY           SKY/WX    TMP DP  RH WIND       PRES   REMARKS
LEESVILLE      CLOUDY    59  48  67 NW17      29.64R
FULLERTON      CLOUDY    59  47  64 MISG      29.61R
ALEXANDRIA INT LGT RAIN  54  51  90 NW29G44   29.58R
ESLER FIELD    CLOUDY    54  52  93 NW10G18   29.57R
DERIDDER       CLOUDY    59  46  62 W14G22    29.67R
OAKDALE        CLOUDY    59  47  65 NW15G24   29.63R
OPELOUSAS      CLOUDY    59  47  64 NW26G38   29.60R
$$

ACROSS SOUTHWEST AND SOUTH CENTRAL LOUISIANA

CITY           SKY/WX    TMP DP  RH WIND       PRES   REMARKS
SULPHUR        MOCLDY    61  46  58 W21G28    29.67R
LAKE CHARLES   MOCLDY    61  46  57 NW17G30   29.65R
CHENNAULT INT  CLOUDY    61  46  59 NW22G33   29.65R
CAMERON PHI    CLEAR     61  48  63 NW21G33   29.67R
DEQUINCY       CLOUDY    60  45  57 W18G26    29.67R
JENNINGS       MOCLDY    59  46  63 W18G25    29.91R
LAFAYETTE      CLOUDY    63  47  55 NW18G29   29.60R
NEW IBERIA     LGT RAIN  61  46  57 W20G31    29.60R
ABBEVILLE      CLOUDY    61  48  63 W18G29    29.62R
PATTERSON      MOCLDY    64  47  53 NW22G35   29.58R
SALT POINT     NOT AVBL
$$

SELECTED SITES ACROSS THE REGION

CITY           SKY/WX    TMP DP  RH WIND       PRES   REMARKS
HOUSTON BUSH   CLEAR     63  42  46 NW12G21   29.79R
HOUSTON HOBBY  CLEAR     64  42  44 NW20G25   29.79R
GALVESTON      CLEAR     65  47  52 NW18G30   29.79R
COLLEGE STAT   CLEAR     62  39  42 NW15G23   29.84R
CONROE         CLEAR     61  42  49 NW16G22   29.79R
HUNTSVILLE     CLEAR     62  38  40 NW14G22   29.80R
LUFKIN         PTCLDY    59  43  55 W12       29.74R
SHREVEPORT     CLOUDY    56  47  71 NW23G40   29.67R
MONROE         CLOUDY    55  50  83 NW15      29.54R
NATCHEZ MS     CLOUDY    54  45  71 W15G22    29.53R
BATON ROUGE    LGT RAIN  57  50  77 NW14G22   29.56R
N.O. INTL ARPT PTCLDY    61  43  51 W14       29.52R
SLIDELL        PTCLDY    59  41  51 VRB3      29.49R
$$

MARINE REPORTS

STATION/POSITION TIME  SKY/WX   TEMP    WIND        PRES    VSBY
                                AIR SEA DIR/SP/G
                 (UTC)          (F)     (DEG/KT/KT) (MB)    (MI)
BUOY 30 S HIGH I 2350            65 66  300/ 31/ 37 1005.1
WVE H/P(F/S)=  7/ 5

SEA RIM ST PARK  0000            61     310/ 20/ 25 1006.2R
PORT ARTHUR      0042               64  300/ 19/ 26 1005.8R
SABINE PASS N    0042            61 68  300/ 13/ 23 1007.3R
TEXAS POINT      NOT AVBL
CALCASIEU PASS   0048            62 65  300/ 24/ 31   N/A
LK CHARLES BEACH 0048            62 63              1004.3R
MARSH ISLAND     NOT AVBL
FRESH WATER LOCK 0048            62 68  270/ 20/ 31 1004.1R
AMERADA PASS     0042            62 57  250/ 10/ 15 1000.8R
$$




USA.gov is the U.S. government's official web portal to all federal, state and local government web resources and services.